Location: Silverdale
(47.6506°N, 122.6941°W)
Time: 04:26:17
(UTC+00:00)

Courier 1B Rocket - Pass Details

Date: 06 October 2022
Orbit: 920 x 1202 km, 28.3° (Epoch: 28 November)

Event Time Altitude Azimuth Distance (km) Brightness Sun altitude
Rises 02:14:26 0° 218° (SW) 3,830 8.7 -6.3°
Reaches altitude 10° 02:19:31 10° 188° (S) 2,798 7.5 -7.2°
Maximum altitude 02:21:32 11° 170° (S) 2,663 7.2 -7.5°
Drops below altitude 10° 02:23:32 10° 152° (SSE) 2,740 7.1 -7.9°
Enters shadow 02:27:04 - 127° (SE) 3,320 7.3 -8.5°
